Voltar ao catálogo

CZ-4B DEB

AtivoSSO
NORAD 44593·DEBRIS·🇨🇳 China

Lançado Oct 25, 2008 de Taiyuan Satellite Launch Center

Loading…

Próximas Passagens (próximas 24 horas)

TLE

AtualizadoSource: Space-Track

Época: Sep 12, 2026, 07:52 UTC

1 44593U 08053M   26255.32798845  .00001117  00000-0  74801-4 0  9991
2 44593  97.8129 285.1710 0017917 334.6606  25.3741 15.08951163700794

Acompanhe CZ-4B DEB em tempo real com AllMySat

Download on the App Store